STARLINK-3337 (50826 NORAD) Tracking and Keplerian Element Data

This shows tracking and keplerian element data for the satellite.

Feedback or suggestion? Click here.




ElementValue
Catalog50826
NameSTARLINK-3337
Epoch Orbit383
Epoch Day22.91667824
Epoch Year2022
RAAN119.7621
Inclination53.2175
Eccentricity0.0001115
Argument of Perigee60.9843
Mean Anonmoly253.2885
Mean Motion15.7526504
Decay Rate-0.00821399
L11 50826U 22001Z 22022.91667824 -.00821399 00000+0 -58898-2 0 9990
L22 50826 53.2175 119.7621 0001115 60.9843 253.2885 15.75265040 3833

Live tracking and technical data element details for STARLINK-3337 (NORAD 50826). STARLINK-3337 can be tracked NOW for your location showing map with azimuth and elevation plus other details from your city location.

Track the satellite on the map from your city or location and see movement details for azimuth, elevation, latitude, longitude, range, height, and movement on the map or in text.







IsCatalogInMostPopularTable: catalog: 50826, numindb: 3
Update: records affected: 1



GetName: 50826 STARLINK-3337

Hit Count: updated at: Mon, 24 Jan 2022 00:17:47 GMT